Location: Palomar Mountain Lodge
(33.3110°N, 116.8495°W)
Time: 03:30:18
(UTC-07:00)

SPOT 5 - Pass Details

Date: 19 May 2017
Orbit: 624 x 815 km, 98.4° (Epoch: 23 June)

Event Time Altitude Azimuth Distance (km) Brightness Sun altitude
Exits shadow 22:45:48 29° 277° (W) 1,148 4.2 -29.7°
Drops below altitude 10° 22:49:03 10° 324° (NW) 1,997 6.1 -30.0°
Sets 22:51:27 0° 335° (NNW) 2,906 7.2 -30.3°
